Location: Newark
(40.4667°N, 5.6000°W)
Time: 11:34:27
(UTC+00:00)

A-11 Canister half - Pass Details

Date: 25 November 2019
Orbit: 1526 x 1683 km, 47.3° (Epoch: 14 December)

Event Time Altitude Azimuth Distance (km) Brightness Sun altitude
Rises 18:43:39 0° 292° (WNW) 4,796 12.6 -19.7°
Reaches altitude 10° 18:47:54 10° 276° (W) 3,779 12.1 -20.4°
Maximum altitude 18:54:02 19° 235° (SW) 3,057 11.3 -21.6°
Drops below altitude 10° 19:00:06 10° 194° (SSW) 3,703 11.3 -22.7°
Sets 19:04:15 0° 178° (S) 4,668 11.6 -23.5°
